CAPE
1476 1784 1802 1725 1736 1846 1960 2075 1759 1433 1204 1282 1461 1353 1140 923 677 660 820 1032 1074 1141 1132 938 1065 1181 1141 1022 816 737 944 898 818 1273 1765 2046 2194 2246 2244 2504 3304 3260 3008 2997 3163 3022 3072 2911 2831 2860 3124 2989 2703 2570 2474 2573 2748 2561 2873 2645 2474 3000 3337 3674 3141 2667 2530 2138 1524 1212 562 422 634 490 432 393 428 38 10 102 171 120 22 0 0
1390 1610 1717 1801 1735 1736 1727 1782 1875 1557 1158 1151 1274 1294 1314 1194 857 736 740 975 1030 1062 1132 1051 1119 1228 1191 1002 880 703 878 1236 1258 1120 1358 1888 2292 2058 2047 2219 3108 3376 2964 3434 3961 3542 2910 3736 3840 3128 3293 3335 3052 2877 2663 2356 2082 2162 3020 2852 2716 3041 3615 3252 3116 2871 2478 1950 1421 588 431 413 450 251 21 13 8 73 101 109 87 10 0 0 0
1369 1616 1791 1754 1760 1692 1668 1504 1565 1508 1302 1075 1074 1038 1040 1125 1039 876 783 813 974 1035 1050 990 1061 1169 1154 988 902 933 1055 1002 1375 1352 1285 1395 1928 2258 2375 2468 2922 3135 2806 3096 3619 4185 3562 3510 3663 3621 2869 2866 2961 2934 2895 2659 2441 2446 2648 2806 2829 3087 3132 3465 3409 2821 2436 1635 856 725 589 437 412 198 2 0 42 50 52 2 8 20 3 0 0
1720 1518 1777 2059 1909 1671 1633 1462 1286 1338 1245 1125 968 933 858 904 993 998 830 747 748 923 873 975 1094 1166 1189 1250 1082 1076 1117 1097 1201 1272 1290 1278 1855 2653 2620 2540 2814 2960 2825 2735 3055 3633 4146 3987 3416 3115 3167 3002 3182 3023 3149 3063 2764 2724 2722 3122 3273 3345 3297 3255 3510 3125 2502 1449 838 577 574 547 440 140 31 33 25 0 61 90 32 0 0 0 0
1932 1841 1931 2033 1930 2147 1841 1602 1285 1191 1144 1074 1016 911 890 860 917 942 846 753 703 813 942 1007 1032 1158 1145 1224 1173 1215 1086 1085 1207 1136 1246 1469 1829 2178 2492 2738 2896 2915 2684 2816 3125 3447 3830 3709 3482 3157 3574 3113 3399 3186 3085 3312 2999 2542 2719 2959 3215 3252 3185 3121 3157 2798 2067 1132 862 657 679 486 276 86 11 0 120 28 26 22 15 1 1 0 0
2249 2058 1954 1960 2009 1940 1748 1861 1418 1231 1146 981 990 964 914 892 895 917 888 816 820 757 830 964 922 988 1099 1249 1149 1056 1054 1061 1096 1267 1195 1234 1542 2267 2488 2768 3120 3139 2998 2652 2854 3267 3327 3324 3506 3452 3260 3176 2917 3086 3511 3504 3142 2628 2634 2812 2760 2878 2987 2914 2694 2808 1942 1008 829 780 473 513 345 0 0 156 109 1 21 35 45 3 3 0 0
2374 2090 1911 1877 2040 1962 1922 1977 1841 1632 1342 1137 872 904 904 909 886 894 938 944 796 682 693 846 987 997 1040 1136 1203 1232 1322 1264 1403 1445 1516 1508 1408 1691 2632 2754 2845 2916 2603 2462 2300 2831 3383 3525 3596 3876 3936 3485 3077 3099 3243 3327 3015 2708 2535 2523 2220 2626 2644 2556 2281 1895 1119 861 689 460 442 293 284 234 0 0 1 0 0 0 0 0 0 0 0
2474 2201 2191 2294 2326 2214 2093 2101 2096 2008 1892 1783 1320 904 906 901 964 900 931 1038 995 768 629 647 694 846 938 978 1189 1300 1308 1359 1512 1643 1640 1757 1696 1391 2476 2927 2571 2646 2419 2473 2312 2960 3766 3784 3557 3727 3652 3278 3079 2820 3107 3322 3156 2633 2282 2037 1691 1782 2295 1926 1291 1176 672 510 341 238 275 394 298 0 0 2 0 0 64 48 8 2 1 3 0
2668 2563 2409 2306 2491 2358 2264 2232 2367 2450 2385 2289 2158 1716 1266 1126 1373 1464 1342 1268 1070 940 767 589 575 579 677 840 1130 1418 1351 1378 1384 1647 1762 1778 1815 1413 2219 2587 2878 2727 2762 2424 3504 3535 3851 3685 3514 3523 3529 3335 3158 3133 2949 3124 3129 2568 2005 1268 1455 1566 1980 1654 1277 998 518 302 155 0 274 222 42 0 0 1 1 3 76 50 6 5 3 0 0
2468 2394 2361 2375 2571 2602 2508 2527 2514 2636 2642 2756 2548 2376 2073 1736 1560 1634 1803 1828 1676 1430 1127 788 532 482 635 812 1169 1406 1570 1573 1686 1711 1733 1665 1666 1606 1981 2348 2846 3361 3795 4274 3762 3846 3616 3112 3061 2989 2882 2989 2622 2517 2201 2035 1930 2335 1964 1354 1574 1536 1472 1373 1228 759 506 228 79 239 3 0 0 0 140 0 2 0 52 39 0 0 0 0 0
2438 2440 2409 2416 2438 2606 2668 2539 2664 2746 2753 2704 2738 2818 2507 2313 2016 1941 1775 1702 1835 1862 1517 1352 1096 623 546 702 1184 1418 1416 1654 1751 1626 1553 1762 1791 1677 2243 2536 3459 3455 4455 4135 3619 3421 3164 2962 2946 2794 2820 2548 2399 1971 1778 1432 1232 1040 908 1037 835 1397 1164 1050 787 360 278 107 317 352 119 11 0 199 184 0 0 2 0 0 0 0 0 0 0
2636 2540 2438 2480 2246 2337 2356 2532 2642 2683 2478 2435 2475 3010 3506 3345 2732 2222 2039 1874 2037 1944 1955 1763 1571 1327 1328 1026 981 1107 1389 934 1292 1706 1739 1663 1871 1397 1167 1775 2685 4054 3952 3372 2616 2214 2272 2417 2514 2872 2355 2419 2104 1606 1277 1174 1094 887 680 691 715 313 645 1261 912 437 395 343 186 161 22 0 171 160 50 99 70 0 2 0 0 0 0 0 0
2727 2630 2522 2476 2445 2118 2323 2309 2370 2333 2334 2135 2094 2688 3317 3572 3615 3148 2562 2189 1938 1876 2072 2048 1888 1543 1188 1050 867 922 1173 592 725 1396 1614 1479 1266 1429 924 1175 3500 2997 2645 2573 2497 2477 2480 2351 2294 2528 2563 2277 1597 1120 980 1027 1004 764 441 303 47 145 298 236 260 489 342 431 238 117 2 131 117 38 104 108 0 0 0 0 0 0 0 0 0
2620 2426 2518 2520 2611 2705 2626 2581 2552 2540 2558 2141 2114 2435 2542 2430 2445 3076 3023 2889 2500 2300 1966 2065 2041 2087 1753 1334 1251 999 750 763 481 901 1241 1200 1063 1020 1579 1017 2088 2239 2563 2464 2412 2486 2438 2498 2389 2398 2395 2108 1627 1176 794 742 692 490 328 192 81 67 26 155 166 132 172 215 304 129 28 0 0 0 2 0 0 0 0 0 0 0 0 0 0
2851 2674 2407 2294 2372 2379 2145 2175 2008 2172 2183 1941 2206 2509 2413 2048 2213 2361 2464 2472 2324 2014 2393 2326 2226 2218 2197 1948 1534 1098 738 463 471 684 931 972 856 710 1564 1797 2044 2149 2285 2244 2345 2463 2559 2406 2369 2340 2300 1693 1587 885 698 609 522 372 275 47 27 92 0 14 70 53 28 38 41 73 67 18 0 2 3 0 0 0 0 0 0 0 0 0 0
2427 2379 2420 2387 2410 2428 2278 2181 2055 1825 2024 2156 2142 2396 2701 2827 2284 2509 2447 1995 2346 2100 2387 2367 2344 2405 2451 2260 1987 1690 1224 531 581 569 711 829 809 940 1672 2786 1896 1932 2004 2201 2276 2303 2309 2224 2060 2121 2092 1465 1303 824 656 499 504 423 305 32 0 0 5 0 0 3 0 3 1 40 7 0 14 4 1 0 0 0 0 0 0 0 0 0 0
2176 2120 2056 1977 1923 1820 1782 1950 1897 1728 1723 1747 1766 1792 2124 2358 2452 2543 2602 2753 2990 2884 2607 2464 2558 2332 2433 2421 2352 2131 2086 1675 1131 834 682 692 670 1496 2111 2352 2189 2196 2198 2291 2246 2236 1901 1814 2157 1998 1840 1440 968 801 718 678 603 520 371 72 0 0 0 6 20 14 0 2 0 0 0 0 0 0 0 0 0 0 0 0 0 0 0 0 0
2066 1868 1691 1741 1753 1702 1840 1606 1475 1498 1705 1670 1538 1648 1664 1834 2002 2187 2323 2481 2842 3045 2680 2516 2402 2534 2466 2388 2352 2448 2354 2239 1688 1347 1026 872 794 1860 2288 2101 1960 1804 1779 1802 1651 1773 1606 1472 1893 1784 1702 1420 840 864 859 821 702 594 339 67 0 4 5 0 0 0 0 0 0 0 0 0 0 0 0 0 0 0 0 0 0 0 0 0 0
1649 1621 1613 1635 1572 1514 1564 1617 1518 1683 1721 1694 1584 1565 1507 1611 1747 1969 2072 2145 2087 2118 2337 2338 2567 2199 2062 2337 2088 2167 2332 2472 1978 1698 1173 940 884 2131 2350 2006 1789 1666 1510 1794 1512 1902 1836 1415 1031 1312 1437 1141 728 810 904 804 710 539 317 106 5 1 0 0 0 0 0 0 0 0 8 13 8 0 0 0 0 0 0 0 0 0 0 0 0
1790 1532 1450 1390 1352 1384 1485 1394 1380 1371 1478 1305 1478 1366 1354 1298 1256 1531 1877 1785 1874 1884 2203 2126 2239 2576 2023 2464 2594 2322 2208 2503 2367 1810 1251 893 912 1453 2209 2025 1771 1707 1409 1337 1451 1598 1680 1128 864 774 617 654 781 658 581 728 438 321 257 113 0 0 0 0 0 0 0 0 0 3 7 0 0 0 0 0 0 0 0 0 0 0 0 0 0
1577 1446 1222 1050 1018 890 964 1016 968 1067 909 968 1093 924 951 924 1027 1038 958 1215 1253 1564 1779 1873 1928 2123 2080 1371 2282 2262 2397 2248 2504 1563 1117 936 965 1040 2120 1948 1766 1655 1456 1178 916 1016 915 1087 605 566 578 687 737 664 660 655 385 190 179 90 27 7 10 10 3 0 0 0 0 0 2 0 0 0 0 0 0 0 0 0 0 0 0 0 0
1211 1232 1036 950 868 870 826 882 729 652 735 583 728 652 756 629 507 665 760 832 827 1045 1226 1715 1941 2045 2260 1944 1904 1390 2185 1814 2618 1601 1317 1128 1008 957 1571 1931 1748 1684 1326 1105 879 696 602 573 526 444 466 584 675 662 620 426 343 156 107 9 2 9 2 0 0 0 0 0 0 0 0 0 0 0 0 0 0 0 0 0 0 0 0 0 0
1219 1133 971 805 790 742 618 493 458 452 340 440 456 464 554 484 486 481 515 709 793 801 922 1062 1244 1852 2106 2105 2140 1956 1923 1936 1289 1204 1048 936 900 901 894 1528 1157 1269 906 672 638 528 508 531 509 447 424 506 557 574 578 398 249 142 88 11 23 7 1 0 0 0 0 1 0 0 0 0 0 0 0 0 0 0 0 0 0 0 0 0 0
1266 1075 883 771 708 599 508 350 302 350 216 276 323 304 288 337 338 372 398 482 519 716 825 837 922 1339 1698 1727 1872 943 1027 1001 1001 995 1001 972 895 850 807 801 872 907 868 652 434 438 476 464 439 343 344 398 431 513 393 61 63 76 0 0 2 1 0 0 0 0 0 0 0 0 0 0 0 0 0 0 0 0 0 0 0 0 0 0 0
1050 943 704 623 540 486 371 320 261 169 189 192 233 184 178 198 155 182 134 239 348 396 504 453 644 805 1256 1385 631 757 758 743 719 809 920 969 1023 1004 1002 893 684 740 608 661 532 604 614 500 439 370 267 298 374 418 350 265 167 2 0 2 1 0 0 0 0 0 0 0 0 0 0 0 0 0 0 0 0 0 0 0 0 0 0 0 0
938 874 732 538 541 498 366 302 185 179 197 161 102 101 132 107 62 71 114 247 300 227 266 290 359 393 438 516 568 600 601 585 693 754 814 836 859 922 973 980 948 933 892 731 675 723 766 647 576 358 269 277 317 335 354 313 4 4 3 0 2 1 0 0 0 0 0 0 0 0 0 0 0 0 0 0 0 0 0 0 0 0 0 0 0
992 829 900 582 510 536 370 503 381 162 152 164 85 71 69 93 45 26 21 34 70 112 130 64 251 317 101 324 362 350 405 454 545 640 694 726 758 789 784 796 792 774 742 666 609 506 369 421 413 329 295 222 178 290 368 219 40 2 4 0 0 0 0 2 1 0 0 0 0 0 0 0 0 0 0 0 0 0 0 0 0 0 0 0 0
956 873 714 528 486 532 411 154 244 222 36 36 19 35 55 0 18 0 1 1 1 3 6 22 4 40 72 25 8 5 39 7 133 231 280 481 566 601 633 626 615 560 494 446 398 339 291 193 80 215 162 156 155 147 117 6 6 6 2 7 4 1 0 0 0 0 0 0 0 0 0 0 0 0 0 0 0 0 0 0 0 0 0 0 0
867 848 726 577 575 537 428 438 356 199 70 344 0 0 0 0 1 2 1 0 0 0 0 0 10 0 2 3 23 26 1 4 2 0 1 0 4 2 12 11 15 10 28 50 73 106 162 201 156 33 0 1 3 2 2 1 2 1 0 0 0 0 0 0 0 0 0 0 0 0 0 0 0 0 0 0 0 0 0 0 0 0 0 0 0
833 826 723 620 576 583 570 406 516 287 184 52 0 0 0 0 0 0 0 0 0 0 0 0 0 0 7 0 0 1 0 0 0 0 0 0 0 1 0 0 0 0 0 0 0 7 4 0 4 7 2 1 2 6 7 4 2 1 0 0 0 0 0 0 0 0 0 0 0 0 0 0 0 0 0 0 0 0 0 0 0 0 0 0 0
1075 851 768 685 578 589 570 452 465 409 243 139 140 1 0 0 0 0 0 0 0 0 0 0 0 0 0 0 0 0 0 0 0 0 0 0 0 0 0 0 0 0 0 0 0 0 0 1 1 4 12 7 6 6 4 3 0 0 0 0 0 0 0 0 0 0 0 0 0 0 0 0 0 0 0 0 0 0 0 0 0 0 0 0 0
1251 874 750 728 693 597 529 527 525 455 379 300 329 308 323 113 0 0 0 0 0 0 0 0 0 0 0 0 0 0 0 0 0 0 0 0 0 0 0 0 0 0 0 0 1 5 5 5 6 6 13 13 10 5 2 0 0 0 0 0 0 0 0 0 0 0 0 0 0 0 0 0 0 0 0 0 0 0 0 0 0 0 0 0 0
816 853 618 658 643 655 585 521 554 496 424 343 318 359 351 330 395 178 0 0 0 0 0 0 0 0 0 0 0 0 0 0 0 0 0 0 0 0 0 0 0 0 0 0 0 1 2 2 2 3 2 3 2 1 0 0 0 0 0 0 0 0 0 0 0 0 0 0 0 0 0 0 0 0 0 0 0 0 0 0 0 0 0 0 0
1010 997 911 816 789 583 609 625 536 550 556 496 510 500 340 365 321 492 220 0 0 0 0 0 0 0 0 0 0 0 0 0 0 0 0 0 0 0 0 0 0 0 0 0 0 0 1 1 2 1 0 0 0 0 0 0 0 0 0 0 0 0 0 0 0 0 0 0 0 0 0 0 0 0 0 0 0 0 0 0 0 0 0 0 0
1238 736 522 922 992 633 546 535 536 508 609 589 490 435 397 330 291 274 462 420 354 160 0 0 0 0 0 0 80 30 0 0 0 0 0 0 0 0 0 0 0 0 0 1 1 0 0 0 0 0 0 0 0 0 0 0 0 0 0 0 0 0 0 0 0 0 0 0 0 0 0 0 0 0 0 0 0 0 0 0 0 0 0 0 0
1198 728 1013 567 918 584 489 576 626 570 629 598 550 496 474 409 348 291 261 184 93 36 0 0 0 1 0 0 1 21 103 41 0 0 0 0 0 0 0 0 0 1 3 3 1 1 0 0 0 0 0 0 0 0 0 0 0 0 0 0 0 0 0 0 0 0 0 0 0 0 0 0 0 0 0 0 0 0 0 0 0 0 0 0 0
865 590 946 932 902 651 596 469 568 700 718 694 611 532 548 511 420 340 266 274 86 2 0 8 0 0 0 0 27 37 70 65 19 6 0 2 2 0 0 0 2 3 4 2 0 0 0 0 0 0 0 0 0 0 0 0 0 0 0 0 0 0 0 0 0 0 0 0 0 0 0 0 0 0 0 0 0 0 0 0 0 0 0 0 0
925 583 576 704 942 838 744 599 511 580 659 671 704 668 636 591 512 442 436 402 342 293 242 180 0 41 21 6 7 24 34 41 18 0 0 1 0 0 0 0 0 0 0 0 0 0 0 0 0 0 0 0 0 0 0 0 0 0 0 0 0 0 0 0 0 0 0 0 0 0 0 0 0 0 0 0 0 0 0 0 0 0 0 0 0
1035 870 756 566 744 937 705 602 449 512 542 595 772 798 754 716 665 643 609 561 507 397 270 163 2 7 0 0 0 8 28 3 1 0 0 0 0 3 6 2 0 0 0 0 0 0 0 0 0 0 0 0 0 0 0 0 0 0 0 0 0 0 0 0 0 0 0 0 0 0 0 0 0 0 0 0 0 0 0 0 0 0 0 0 0
1052 1252 883 440 550 489 767 709 596 431 571 675 763 848 888 848 830 746 618 546 404 252 4 1 1 0 27 0 0 0 0 0 0 0 0 0 0 9 11 7 0 0 0 0 0 0 0 0 0 0 0 0 0 0 0 0 0 0 0 0 0 0 0 0 0 0 0 0 0 0 0 0 0 0 0 0 0 0 0 0 0 0 0 0 0
1466 1259 1223 545 597 620 585 785 797 749 756 599 598 446 453 552 577 482 397 254 77 73 14 1 2 14 0 0 2 2 0 2 0 5 2 1 3 8 9 6 0 0 0 0 0 0 0 0 0 0 0 0 0 0 0 0 0 0 0 0 0 0 0 0 0 0 0 0 0 0 0 0 0 0 0 0 0 0 0 0 0 0 0 0 0
1436 1327 1191 1074 660 773 557 520 794 823 834 762 750 615 491 550 403 474 250 177 24 120 35 2 3 18 12 2 2 1 0 1 0 0 1 9 10 9 6 6 3 1 0 0 0 0 0 0 0 0 0 0 0 0 0 0 0 0 0 0 0 0 0 0 0 0 0 0 0 0 0 0 0 0 0 0 0 0 0 0 0 0 0 0 0
1148 896 979 930 956 822 616 529 589 893 895 919 893 796 710 480 597 512 377 281 130 16 109 28 2 14 1 3 2 2 0 6 3 6 5 4 4 4 4 3 2 0 0 0 0 0 0 0 0 0 0 0 0 0 0 0 0 0 0 0 0 0 0 0 0 0 0 0 0 0 0 0 0 0 0 0 0 0 0 0 0 0 0 0 0
939 882 862 802 806 698 611 500 536 469 723 850 660 673 563 713 670 602 444 388 286 68 28 40 9 0 0 1 2 2 0 4 6 3 0 0 1 2 2 4 1 0 0 0 0 0 0 0 0 0 0 0 0 0 0 0 0 0 0 0 0 0 0 0 0 0 0 0 0 0 0 0 0 0 0 0 0 0 0 0 0 0 0 0 0
885 741 730 725 762 771 709 636 508 492 381 430 683 783 624 631 610 592 387 494 312 174 33 24 8 4 0 0 0 0 1 0 0 0 0 0 1 4 1 0 0 0 0 0 0 0 0 0 0 0 0 0 0 0 0 0 0 0 0 0 0 0 0 0 0 0 0 0 0 0 0 0 0 0 0 0 0 0 0 0 0 0 0 0 0
1122 936 676 462 474 410 479 587 517 559 615 545 559 462 459 424 343 506 492 418 329 192 110 42 22 9 1 0 0 0 0 0 0 0 1 5 5 1 0 0 0 0 0 0 0 0 0 0 0 0 0 0 0 0 0 0 0 0 0 0 0 0 0 0 0 0 0 0 0 0 0 0 0 0 0 0 0 0 0 0 0 0 0 0 0
1145 1132 992 727 440 315 252 357 440 346 438 407 493 607 518 435 339 277 258 185 171 208 101 122 16 14 8 2 0 0 0 0 2 4 11 14 6 0 0 0 0 0 0 0 0 0 0 0 0 0 0 0 0 0 0 0 0 0 0 0 0 0 0 0 0 0 0 0 0 0 0 0 0 0 0 0 0 0 0 0 0 0 0 0 0
1418 1244 1205 1115 861 561 334 325 368 326 284 261 318 400 453 497 571 505 380 262 326 248 240 129 176 82 49 22 9 3 2 4 4 4 6 6 5 0 0 0 0 0 0 0 0 0 0 0 0 0 0 0 0 0 0 0 0 0 0 0 0 0 0 0 0 0 0 0 0 0 0 0 0 0 0 0 0 0 0 0 0 0 0 0 0
1587 1393 1261 1163 1164 1077 729 431 330 348 278 330 332 279 212 228 264 350 351 382 338 358 325 257 166 177 186 97 39 20 14 8 9 6 0 0 0 0 0 0 0 0 0 0 0 0 0 0 0 0 0 0 0 0 0 0 0 0 0 0 0 0 0 0 0 0 0 0 0 0 0 0 0 0 0 0 0 0 0 0 0 0 0 0 0
1649 1485 1308 1114 1040 1104 1116 962 742 503 396 346 370 459 404 344 270 181 114 118 214 310 374 344 330 303 243 207 165 76 33 19 14 18 14 2 0 0 0 0 0 0 0 0 0 0 0 0 0 1 1 4 4 6 2 0 0 0 0 0 0 0 0 0 0 0 0 0 0 0 0 0 0 0 0 0 0 0 0 0 0 0 0 0 0
1773 1689 1353 1143 1298 1176 1185 1260 1225 1070 895 706 512 384 396 430 452 424 368 301 201 152 150 222 286 335 348 319 273 283 197 128 46 25 19 9 1 0 0 0 0 0 0 0 0 0 0 0 0 2 4 4 8 10 6 0 0 0 0 0 0 0 0 0 0 0 0 0 0 0 0 0 0 0 0 0 0 0 0 0 0 0 0 0 0
Wind_Speed
8 8 6 5 4 5 6 7 6 6 4 2 1 3 4 5 7 8 9 9 10 9 9 9 9 9 8 8 7 8 8 8 9 10 11 10 10 10 12 13 13 14 14 15 16 17 17 16 16 15 15 14 15 15 15 14 14 13 15 14 14 15 16 16 15 17 23 23 24 25 27 28 28 29 32 31 31 nan nan 31 31 32 nan nan nan
10 9 9 8 5 6 5 7 6 5 5 4 2 2 4 5 6 7 7 8 9 9 9 9 9 8 8 7 8 7 9 9 9 10 11 11 9 10 10 10 11 13 14 15 16 17 17 17 16 15 15 15 15 15 15 14 13 14 16 15 16 17 18 17 18 17 21 23 24 25 27 29 30 29 nan nan nan nan 33 32 nan nan nan nan nan
11 11 9 8 7 7 7 7 8 6 5 4 3 3 4 5 6 6 6 8 8 8 9 8 9 8 8 8 8 7 8 9 10 10 10 10 9 9 9 10 10 11 12 13 15 16 16 16 15 15 16 15 15 14 14 14 14 15 16 16 17 18 19 19 20 18 22 25 26 27 28 29 30 31 nan nan nan nan nan nan nan nan nan nan nan
13 12 11 8 7 8 9 8 8 9 7 7 5 4 5 6 7 7 7 8 8 9 8 8 8 9 9 8 8 7 8 9 9 10 9 9 9 9 8 8 9 10 11 12 13 15 15 15 14 15 15 15 15 15 15 14 15 15 16 18 18 18 20 20 21 20 22 24 26 28 28 30 31 32 nan nan nan nan nan nan nan nan nan nan nan
15 13 13 11 9 9 9 10 9 9 9 9 8 7 6 7 8 8 8 8 7 8 10 9 8 9 9 8 8 8 8 9 9 8 10 11 10 9 8 8 9 10 11 13 13 14 13 13 13 13 15 14 15 15 16 15 16 16 16 19 19 20 20 21 21 21 23 27 29 28 28 29 31 nan nan nan 35 nan nan nan nan nan nan nan nan
16 16 15 14 14 13 12 12 11 10 11 11 10 10 9 8 8 10 9 8 9 8 8 10 9 9 9 9 8 9 10 10 9 9 8 9 10 11 9 10 11 12 12 11 12 11 11 12 13 13 14 14 15 16 17 16 16 16 18 19 20 21 20 22 21 22 27 30 31 31 30 32 31 nan nan 34 37 nan nan nan nan nan nan nan nan
15 16 15 13 13 14 15 15 15 14 13 13 13 12 11 11 9 9 11 10 9 9 9 9 10 10 10 10 9 9 10 10 11 10 10 9 9 9 11 12 12 12 12 10 10 12 14 15 15 15 15 14 14 15 16 16 17 17 19 20 21 21 21 23 25 27 30 31 31 32 33 33 34 34 nan nan nan nan nan nan nan nan nan nan nan
15 14 14 12 11 11 12 15 17 18 17 17 15 14 13 13 12 12 11 10 10 9 9 9 10 10 10 11 11 11 11 10 11 11 11 11 10 9 10 12 12 13 11 12 10 16 18 17 16 15 14 14 14 14 16 17 18 19 22 23 22 22 22 25 26 29 31 32 33 33 33 34 34 nan nan nan nan nan nan nan nan nan nan nan nan
12 14 14 13 12 12 11 12 15 17 19 19 18 17 16 16 15 14 13 11 12 10 9 8 9 9 10 10 11 12 12 11 12 12 12 11 11 10 10 12 13 13 17 11 22 21 22 19 17 15 15 15 17 17 18 20 19 21 23 22 23 24 23 26 27 32 34 33 34 nan 36 35 nan nan nan nan nan nan nan nan nan nan nan nan nan
11 11 12 12 13 13 13 13 14 15 17 18 19 20 19 18 17 16 14 13 12 12 11 10 9 8 9 10 11 12 12 14 14 13 13 14 14 13 13 13 14 16 17 21 20 22 21 19 17 17 18 20 21 20 23 25 25 25 24 24 25 25 25 26 31 32 34 34 nan 36 nan nan nan nan 37 nan nan nan nan nan nan nan nan nan nan
12 12 11 11 10 11 13 13 13 14 16 16 17 19 21 21 17 15 14 14 13 13 12 11 10 10 9 10 11 12 12 14 15 18 18 16 15 15 15 16 18 18 19 19 22 24 25 20 18 19 22 21 19 20 24 25 25 28 31 30 30 28 27 30 31 33 34 34 35 35 36 nan nan 38 37 nan nan nan nan nan nan nan nan nan nan
13 13 12 11 10 10 11 13 13 14 15 15 17 20 22 22 18 15 14 14 15 15 13 12 12 12 13 11 10 12 12 14 19 22 21 19 17 15 15 16 18 20 22 21 26 25 24 22 18 19 19 20 23 25 25 29 30 32 33 34 36 38 35 33 35 34 35 35 37 34 nan nan 40 38 nan nan nan nan nan nan nan nan nan nan nan
14 13 11 10 9 9 10 11 12 13 13 13 15 17 18 19 17 16 14 14 14 14 14 14 14 13 13 13 12 13 13 14 22 23 23 22 20 18 17 17 26 29 23 27 26 26 24 22 20 20 23 26 28 26 27 32 36 38 41 42 nan 40 39 40 40 35 34 35 35 38 nan 40 42 nan 41 42 nan nan nan nan nan nan nan nan nan
16 15 13 11 10 10 10 11 13 14 14 12 12 11 11 14 15 16 18 18 16 15 15 15 16 17 16 15 15 14 14 14 23 26 25 24 24 23 21 19 31 22 23 26 25 26 26 24 23 22 24 29 28 30 32 33 33 35 36 37 nan nan nan 41 38 37 35 34 36 39 nan nan nan nan nan nan nan nan nan nan nan nan nan nan nan
15 15 13 12 11 11 10 11 13 14 14 12 11 9 9 11 13 16 18 18 18 17 17 18 19 20 19 18 17 16 16 17 22 27 27 27 27 27 23 26 28 23 24 25 24 26 27 25 25 26 29 30 31 34 35 35 35 37 39 nan nan nan nan nan nan nan nan nan nan nan nan nan nan nan nan nan nan nan nan nan nan nan nan nan nan
14 14 15 14 13 13 13 12 13 13 14 14 13 12 13 14 13 15 17 17 18 18 16 16 16 17 20 20 20 18 17 20 23 26 28 28 31 31 27 32 29 27 25 25 27 28 27 26 26 28 31 31 36 39 37 38 40 42 43 nan nan nan nan nan nan nan nan nan nan nan nan nan nan nan nan nan nan nan nan nan nan nan nan nan nan
17 17 16 15 13 13 13 13 12 12 12 13 13 13 14 15 16 19 19 19 20 19 18 17 16 15 16 19 20 20 19 21 26 28 29 33 36 31 31 31 32 29 27 26 28 29 28 26 28 28 32 32 41 42 45 45 43 45 47 nan nan nan nan nan nan nan nan nan nan nan nan nan nan nan nan nan nan nan nan nan nan nan nan nan nan
20 19 18 17 15 14 14 14 13 12 12 13 14 15 16 18 19 22 21 20 20 20 21 20 18 18 16 16 18 19 20 24 29 30 32 37 35 33 33 31 31 30 29 30 31 32 30 28 29 29 32 35 48 45 47 44 46 48 50 nan nan nan nan nan nan nan nan nan nan nan nan nan nan nan nan nan nan nan nan nan nan nan nan nan nan
20 19 19 19 18 17 17 16 15 14 13 15 16 16 17 19 22 24 23 22 21 22 21 20 20 20 18 17 18 17 19 25 32 34 36 37 35 35 35 34 34 33 35 38 33 32 33 37 32 30 31 43 51 46 45 44 48 52 53 53 nan nan nan nan nan nan nan nan nan nan nan nan nan nan nan nan nan nan nan nan nan nan nan nan nan
19 21 22 22 21 20 20 19 18 18 18 17 17 17 19 20 20 22 24 24 23 23 23 22 21 22 20 19 20 18 18 21 30 35 38 37 37 36 34 32 30 33 36 38 35 34 36 38 38 36 42 53 51 49 50 51 47 51 55 53 nan nan nan nan nan nan nan nan nan nan nan nan nan nan nan nan nan nan nan nan nan nan nan nan nan
20 20 20 21 22 22 22 22 22 22 22 21 21 20 20 20 21 21 22 23 23 23 22 21 22 23 23 21 20 20 20 20 23 32 33 36 37 36 34 29 28 32 32 35 34 33 33 34 43 49 58 60 56 52 53 52 49 49 54 nan nan nan nan nan nan nan nan nan nan nan nan nan nan nan nan nan nan nan nan nan nan nan nan nan nan
21 22 23 23 23 23 23 23 22 23 22 22 21 21 22 21 21 21 21 21 21 21 20 22 23 23 25 24 23 20 21 20 25 32 32 34 35 32 31 29 29 29 28 30 33 35 35 38 42 52 61 60 57 56 56 54 53 51 57 nan nan nan nan nan nan nan nan nan nan nan nan nan nan nan nan nan nan nan nan nan nan nan nan nan nan
23 23 24 24 24 24 25 25 24 24 24 24 23 23 24 23 22 22 21 20 19 19 19 20 20 21 23 25 26 25 25 29 34 36 34 34 32 28 25 28 32 32 32 31 33 38 41 41 44 54 59 60 60 60 57 59 58 57 nan nan nan nan nan nan nan nan nan nan nan nan nan nan nan nan nan nan nan nan nan nan nan nan nan nan nan
24 24 24 24 24 26 26 26 27 25 27 26 26 26 27 27 26 26 25 22 21 18 18 18 17 19 21 25 27 32 35 33 37 37 35 31 30 28 27 28 35 34 35 37 40 42 43 44 48 56 58 59 61 62 61 nan nan nan nan nan nan nan nan nan nan nan nan nan nan nan nan nan nan nan nan nan nan nan nan nan nan nan nan nan nan
24 24 24 24 24 26 27 28 29 28 28 28 28 27 28 28 27 27 26 26 25 24 22 22 20 19 20 22 28 30 30 33 34 33 33 31 29 28 27 31 32 34 38 38 39 37 40 47 53 56 60 61 64 66 62 59 59 nan nan nan nan nan nan nan nan nan nan nan nan nan nan nan nan nan nan nan nan nan nan nan nan nan nan nan nan
24 24 24 25 25 26 26 28 29 30 29 29 28 27 26 26 nan nan 25 25 26 26 27 26 25 25 25 27 25 25 27 27 29 31 30 29 32 38 41 41 45 48 49 48 53 58 58 58 55 54 54 54 55 55 53 54 nan nan nan nan nan nan nan nan nan nan nan nan nan nan nan nan nan nan nan nan nan nan nan nan nan nan nan nan nan
22 22 24 25 26 26 26 27 28 30 29 28 nan nan nan nan nan nan nan nan nan 25 25 nan 28 28 26 26 26 26 26 25 26 27 29 33 35 39 44 47 52 53 50 50 54 53 56 55 53 55 57 61 62 62 60 61 nan nan nan nan nan nan nan nan nan nan nan nan nan nan nan nan nan nan nan nan nan nan nan nan nan nan nan nan nan
21 23 23 25 25 25 27 27 25 30 nan nan nan nan nan nan nan nan nan nan nan nan nan nan nan nan nan nan nan nan nan nan 26 27 28 30 34 36 39 39 40 43 46 46 47 50 51 53 nan 52 54 54 54 53 54 nan nan nan nan nan nan nan nan nan nan nan nan nan nan nan nan nan nan nan nan nan nan nan nan nan nan nan nan nan nan
19 21 23 24 25 24 25 26 28 29 nan 31 nan nan nan nan nan nan nan nan nan nan nan nan nan nan nan nan nan nan nan nan nan nan nan nan nan nan nan nan nan nan nan nan nan 44 43 43 44 nan nan nan nan nan nan nan nan nan nan nan nan nan nan nan nan nan nan nan nan nan nan nan nan nan nan nan nan nan nan nan nan nan nan nan nan
21 20 21 23 25 25 24 26 27 26 28 nan nan nan nan nan nan nan nan nan nan nan nan nan nan nan nan nan nan nan nan nan nan nan nan nan nan nan nan nan nan nan nan nan nan nan nan nan nan nan nan nan nan nan nan nan nan nan nan nan nan nan nan nan nan nan nan nan nan nan nan nan nan nan nan nan nan nan nan nan nan nan nan nan nan
19 21 21 21 24 24 25 25 26 26 26 26 26 nan nan nan nan nan nan nan nan nan nan nan nan nan nan nan nan nan nan nan nan nan nan nan nan nan nan nan nan nan nan nan nan nan nan nan nan nan nan nan nan nan nan nan nan nan nan nan nan nan nan nan nan nan nan nan nan nan nan nan nan nan nan nan nan nan nan nan nan nan nan nan nan
19 19 19 23 24 21 24 24 24 25 25 24 24 23 24 27 nan nan nan nan nan nan nan nan nan nan nan nan nan nan nan nan nan nan nan nan nan nan nan nan nan nan nan nan nan nan nan nan nan nan nan nan nan nan nan nan nan nan nan nan nan nan nan nan nan nan nan nan nan nan nan nan nan nan nan nan nan nan nan nan nan nan nan nan nan
20 20 20 20 22 23 21 23 22 22 23 23 23 22 23 23 24 26 nan nan nan nan nan nan nan nan nan nan nan nan nan nan nan nan nan nan nan nan nan nan nan nan nan nan nan nan nan nan nan nan nan nan nan nan nan nan nan nan nan nan nan nan nan nan nan nan nan nan nan nan nan nan nan nan nan nan nan nan nan nan nan nan nan nan nan
21 19 19 20 21 21 21 21 21 22 22 22 22 22 23 24 24 22 23 nan nan nan nan nan nan nan nan nan nan nan nan nan nan nan nan nan nan nan nan nan nan nan nan nan nan nan nan nan nan nan nan nan nan nan nan nan nan nan nan nan nan nan nan nan nan nan nan nan nan nan nan nan nan nan nan nan nan nan nan nan nan nan nan nan nan
22 25 21 17 20 21 20 21 21 21 21 21 22 23 24 24 24 24 23 22 23 24 nan nan nan nan nan nan nan nan nan nan nan nan nan nan nan nan nan nan nan nan nan nan nan nan nan nan nan nan nan nan nan nan nan nan nan nan nan nan nan nan nan nan nan nan nan nan nan nan nan nan nan nan nan nan nan nan nan nan nan nan nan nan nan
21 21 22 18 18 20 20 21 21 21 20 21 23 24 23 24 24 25 24 24 nan nan nan nan nan nan nan nan nan nan 28 nan nan nan nan nan nan nan nan nan nan nan nan nan nan nan nan nan nan nan nan nan nan nan nan nan nan nan nan nan nan nan nan nan nan nan nan nan nan nan nan nan nan nan nan nan nan nan nan nan nan nan nan nan nan
22 22 21 21 20 19 20 20 19 18 19 19 22 24 24 24 25 25 25 25 nan nan nan nan nan nan nan nan nan nan nan nan nan nan nan nan nan nan nan nan nan nan nan nan nan nan nan nan nan nan nan nan nan nan nan nan nan nan nan nan nan nan nan nan nan nan nan nan nan nan nan nan nan nan nan nan nan nan nan nan nan nan nan nan nan
22 22 21 22 22 22 21 20 20 21 17 18 21 23 25 26 26 26 26 26 26 26 26 26 nan nan nan nan nan nan nan nan nan nan nan nan nan nan nan nan nan nan nan nan nan nan nan nan nan nan nan nan nan nan nan nan nan nan nan nan nan nan nan nan nan nan nan nan nan nan nan nan nan nan nan nan nan nan nan nan nan nan nan nan nan
22 26 28 25 19 20 22 21 21 19 20 19 21 22 25 26 27 27 27 27 26 27 27 27 nan nan nan nan nan nan nan nan nan nan nan nan nan nan nan nan nan nan nan nan nan nan nan nan nan nan nan nan nan nan nan nan nan nan nan nan nan nan nan nan nan nan nan nan nan nan nan nan nan nan nan nan nan nan nan nan nan nan nan nan nan
22 24 24 22 20 20 21 21 19 18 19 20 21 22 24 26 27 27 27 27 26 26 nan nan nan nan nan nan nan nan nan nan nan nan nan nan nan nan nan nan nan nan nan nan nan nan nan nan nan nan nan nan nan nan nan nan nan nan nan nan nan nan nan nan nan nan nan nan nan nan nan nan nan nan nan nan nan nan nan nan nan nan nan nan nan
21 22 26 23 17 23 21 20 19 17 19 19 21 22 23 24 25 25 26 26 nan nan nan nan nan nan nan nan nan nan nan nan nan nan nan nan nan nan nan nan nan nan nan nan nan nan nan nan nan nan nan nan nan nan nan nan nan nan nan nan nan nan nan nan nan nan nan nan nan nan nan nan nan nan nan nan nan nan nan nan nan nan nan nan nan
22 22 22 24 22 19 21 21 21 19 18 19 19 20 22 22 22 22 24 24 nan 26 nan nan nan nan nan nan nan nan nan nan nan nan nan nan nan nan nan nan nan nan nan nan nan nan nan nan nan nan nan nan nan nan nan nan nan nan nan nan nan nan nan nan nan nan nan nan nan nan nan nan nan nan nan nan nan nan nan nan nan nan nan nan nan
23 22 23 23 22 20 20 22 22 22 20 19 19 19 19 20 20 21 21 21 24 nan 25 nan nan nan nan nan nan nan nan nan nan nan nan nan nan nan nan nan nan nan nan nan nan nan nan nan nan nan nan nan nan nan nan nan nan nan nan nan nan nan nan nan nan nan nan nan nan nan nan nan nan nan nan nan nan nan nan nan nan nan nan nan nan
26 24 24 24 23 22 20 20 21 21 22 22 20 19 19 19 19 20 20 21 22 nan nan nan nan nan nan nan nan nan nan nan nan nan nan nan nan nan nan nan nan nan nan nan nan nan nan nan nan nan nan nan nan nan nan nan nan nan nan nan nan nan nan nan nan nan nan nan nan nan nan nan nan nan nan nan nan nan nan nan nan nan nan nan nan
27 25 25 24 24 23 22 21 20 21 21 22 22 21 21 20 20 20 19 20 21 21 nan nan nan nan nan nan nan nan nan nan nan nan nan nan nan nan nan nan nan nan nan nan nan nan nan nan nan nan nan nan nan nan nan nan nan nan nan nan nan nan nan nan nan nan nan nan nan nan nan nan nan nan nan nan nan nan nan nan nan nan nan nan nan
26 25 24 24 24 23 22 22 21 20 20 20 20 21 22 22 21 21 21 20 21 21 22 nan nan nan nan nan nan nan nan nan nan nan nan nan nan nan nan nan nan nan nan nan nan nan nan nan nan nan nan nan nan nan nan nan nan nan nan nan nan nan nan nan nan nan nan nan nan nan nan nan nan nan nan nan nan nan nan nan nan nan nan nan nan
24 23 23 23 22 23 22 22 22 21 20 20 19 19 21 22 22 23 22 21 21 22 21 23 nan nan nan nan nan nan nan nan nan nan nan nan nan nan nan nan nan nan nan nan nan nan nan nan nan nan nan nan nan nan nan nan nan nan nan nan nan nan nan nan nan nan nan nan nan nan nan nan nan nan nan nan nan nan nan nan nan nan nan nan nan
22 22 21 21 22 22 23 22 23 23 21 21 21 20 20 21 22 23 23 23 22 22 21 22 23 nan nan nan nan nan nan nan nan nan nan nan nan nan nan nan nan nan nan nan nan nan nan nan nan nan nan nan nan nan nan nan nan nan nan nan nan nan nan nan nan nan nan nan nan nan nan nan nan nan nan nan nan nan nan nan nan nan nan nan nan
20 20 21 22 22 22 22 23 23 24 23 23 23 23 23 23 23 24 24 24 24 23 22 21 22 22 22 nan nan nan nan nan nan nan nan nan nan nan nan nan nan nan nan nan nan nan nan nan nan nan nan nan nan nan nan nan nan nan nan nan nan nan nan nan nan nan nan nan nan nan nan nan nan nan nan nan nan nan nan nan nan nan nan nan nan
20 20 21 22 23 23 23 23 24 25 25 24 23 22 22 21 22 23 24 24 25 25 24 23 22 22 22 22 23 nan nan nan nan nan nan nan nan nan nan nan nan nan nan nan nan nan nan nan nan nan nan nan nan nan nan nan nan nan nan nan nan nan nan nan nan nan nan nan nan nan nan nan nan nan nan nan nan nan nan nan nan nan nan nan nan
21 22 22 21 24 24 24 24 25 25 25 25 24 23 22 22 22 23 24 24 24 25 25 24 24 23 22 23 23 23 23 23 nan nan nan nan nan nan nan nan nan nan nan nan nan nan nan nan nan nan nan nan nan nan nan nan nan nan nan nan nan nan nan nan nan nan nan nan nan nan nan nan nan nan nan nan nan nan nan nan nan nan nan nan nan
Wind_Direction
289 294 286 290 302 309 311 319 331 323 336 329 181 202 212 204 209 210 217 207 208 212 211 210 211 217 215 228 241 245 247 250 259 260 261 257 250 239 230 237 242 241 241 238 242 242 243 244 245 248 249 248 250 250 250 252 255 252 247 244 240 243 246 250 250 256 265 263 269 275 273 277 282 288 291 292 293 nan nan 296 297 294 nan nan nan
271 283 291 282 296 300 298 295 302 299 321 313 295 232 219 219 210 218 220 227 220 215 217 222 227 220 219 227 229 239 254 259 258 261 259 255 250 249 252 250 244 242 240 244 250 248 246 252 255 253 257 252 246 247 246 245 246 246 254 242 239 244 249 249 253 254 269 273 274 274 278 282 287 293 nan nan nan nan 301 300 nan nan nan nan nan
250 256 269 278 292 287 282 286 286 295 300 282 283 261 238 229 229 220 222 229 240 230 231 230 227 230 227 225 239 247 256 264 264 259 256 256 252 243 239 247 255 250 251 251 250 252 254 257 260 259 258 257 256 252 247 243 240 239 241 244 244 248 252 255 256 261 274 278 281 284 285 287 292 297 nan nan nan nan nan nan nan nan nan nan nan
252 249 253 263 275 281 280 276 286 286 284 270 269 262 241 241 240 231 230 230 238 249 242 240 243 241 233 236 242 248 256 264 267 267 267 256 254 256 247 243 247 250 248 249 253 254 256 259 262 263 261 259 255 250 249 247 247 248 248 251 250 249 255 261 265 264 275 283 285 286 289 292 295 298 nan nan nan nan nan nan nan nan nan nan nan
256 252 250 251 251 258 265 274 275 276 276 269 274 267 259 248 248 248 244 241 239 242 255 254 250 256 255 253 254 259 263 268 271 265 259 261 260 254 253 252 249 247 245 247 254 256 261 264 267 269 268 260 259 256 253 252 251 252 254 258 258 260 263 265 269 274 281 286 286 285 289 291 296 nan nan nan 300 nan nan nan nan nan nan nan nan
264 262 259 255 249 247 249 253 259 264 265 265 266 266 264 260 253 256 257 256 253 249 250 259 262 266 265 264 263 265 269 271 273 272 266 260 261 261 254 250 248 247 249 251 258 264 262 264 264 263 262 263 259 258 258 258 257 260 261 261 261 263 268 272 273 276 281 286 288 289 291 292 297 nan nan 302 304 nan nan nan nan nan nan nan nan
283 277 274 266 257 260 260 252 249 249 253 251 253 257 257 259 259 254 259 260 263 264 265 263 261 265 270 271 266 262 264 269 268 271 266 256 253 258 259 254 251 246 248 253 256 262 258 255 255 255 258 259 259 261 264 265 266 268 270 268 269 269 273 275 279 282 285 287 288 290 294 294 295 299 nan nan nan nan nan nan nan nan nan nan nan
308 301 292 286 277 274 273 267 258 250 247 248 244 245 251 252 252 250 247 253 256 262 265 270 270 265 266 270 272 266 264 264 268 268 265 259 255 256 257 255 252 254 246 238 240 252 258 256 255 259 262 265 266 264 265 266 270 274 274 275 275 274 273 278 282 285 288 290 291 292 293 295 296 nan nan nan nan nan nan nan nan nan nan nan nan
323 315 307 302 295 291 285 272 260 253 253 253 253 246 242 241 243 245 249 243 245 250 253 256 260 265 269 266 268 271 269 269 267 268 267 263 257 255 258 257 254 248 255 254 256 258 259 257 255 258 263 257 261 253 251 254 268 273 274 275 276 278 278 281 282 288 289 290 290 nan 293 294 nan nan nan nan nan nan nan nan nan nan nan nan nan
328 329 320 312 299 292 285 278 269 260 255 257 256 253 248 244 243 246 249 252 249 246 246 251 256 260 265 267 266 262 263 262 267 276 265 257 258 256 255 254 255 254 254 259 256 259 260 259 257 261 265 266 267 267 262 260 252 254 270 278 278 276 277 279 282 285 286 290 nan 294 nan nan nan nan 299 nan nan nan nan nan nan nan nan nan nan
323 319 320 317 312 298 285 279 273 267 263 265 269 261 249 244 247 251 254 258 258 258 255 254 258 258 261 266 269 266 262 262 273 274 275 266 254 252 253 252 256 257 261 259 260 258 256 254 254 264 269 271 272 277 266 272 274 268 261 259 264 272 281 280 283 287 289 291 293 296 297 nan nan 297 299 nan nan nan nan nan nan nan nan nan nan
329 322 317 313 309 305 297 293 289 282 275 277 283 272 248 238 242 251 257 261 260 260 261 260 258 260 261 263 264 265 266 267 276 281 280 279 270 256 249 248 254 261 256 263 265 265 263 262 260 264 268 273 273 274 273 273 271 269 271 271 267 261 260 275 285 288 291 292 294 296 nan nan 295 297 nan nan nan nan nan nan nan nan nan nan nan
323 322 316 309 300 292 289 289 288 286 282 281 286 276 243 228 239 252 256 257 257 260 263 262 264 265 264 265 265 264 258 263 279 286 286 284 281 270 252 248 250 254 262 265 267 268 269 269 270 269 268 276 279 282 279 274 266 264 263 264 nan 264 264 264 263 272 287 287 290 290 nan 294 295 nan 295 296 nan nan nan nan nan nan nan nan nan
314 318 316 308 294 276 271 274 275 277 273 273 282 274 244 232 240 250 254 259 260 259 260 262 261 260 260 262 262 264 266 264 276 284 285 285 282 275 260 255 264 274 274 270 272 272 271 270 271 273 274 280 283 283 280 279 278 275 273 272 nan nan nan 268 268 267 271 285 286 290 nan nan nan nan nan nan nan nan nan nan nan nan nan nan nan
295 301 305 298 285 275 264 259 262 267 268 263 261 259 245 242 254 258 259 259 260 261 261 260 259 259 260 260 259 261 262 271 275 282 284 285 283 277 267 265 271 270 269 266 269 270 273 273 275 276 277 281 280 284 281 281 281 279 277 nan nan nan nan nan nan nan nan nan nan nan nan nan nan nan nan nan nan nan nan nan nan nan nan nan nan
272 281 290 292 286 274 264 254 251 255 261 259 255 249 246 247 252 257 256 252 251 252 256 262 266 264 260 257 253 254 254 266 274 278 281 281 278 270 272 273 274 275 273 269 267 269 274 276 279 281 280 283 282 285 285 281 280 280 280 nan nan nan nan nan nan nan nan nan nan nan nan nan nan nan nan nan nan nan nan nan nan nan nan nan nan
256 258 261 270 278 277 273 266 260 258 258 260 257 252 248 245 246 249 250 250 250 254 253 257 260 262 261 255 252 248 250 260 269 273 276 276 271 268 272 274 275 279 278 275 271 268 270 273 278 280 282 283 280 281 279 280 282 281 278 nan nan nan nan nan nan nan nan nan nan nan nan nan nan nan nan nan nan nan nan nan nan nan nan nan nan
255 252 256 263 271 278 278 279 277 274 269 266 260 253 249 247 245 247 248 250 253 256 259 257 258 256 254 253 251 248 246 253 268 270 272 276 275 270 271 274 274 274 274 273 273 274 273 278 279 283 285 283 279 281 285 287 284 283 280 nan nan nan nan nan nan nan nan nan nan nan nan nan nan nan nan nan nan nan nan nan nan nan nan nan nan
259 255 254 256 261 267 272 274 273 271 267 263 259 254 248 246 245 246 249 251 252 252 255 258 259 262 261 256 249 248 248 250 264 266 269 274 273 270 273 273 275 274 272 270 271 269 270 273 277 273 276 272 281 286 291 288 285 284 282 280 nan nan nan nan nan nan nan nan nan nan nan nan nan nan nan nan nan nan nan nan nan nan nan nan nan
267 259 254 252 253 256 258 259 260 258 257 256 256 255 250 248 246 248 252 253 251 252 253 256 257 255 258 262 263 265 263 256 263 271 270 273 278 272 274 279 284 282 279 276 273 267 265 266 272 280 275 274 273 268 264 265 273 278 279 280 nan nan nan nan nan nan nan nan nan nan nan nan nan nan nan nan nan nan nan nan nan nan nan nan nan
272 263 259 257 253 253 253 253 255 257 256 252 251 253 255 253 251 251 250 250 254 259 259 255 255 255 256 256 256 259 265 269 271 280 277 279 282 278 272 277 279 277 280 282 286 285 279 270 261 265 268 272 276 276 272 273 272 271 274 nan nan nan nan nan nan nan nan nan nan nan nan nan nan nan nan nan nan nan nan nan nan nan nan nan nan
280 275 267 263 259 257 258 260 262 261 261 258 254 254 257 260 261 259 258 258 258 256 258 261 258 257 257 256 260 264 259 262 261 272 279 283 286 288 272 275 278 279 281 280 285 285 285 275 265 270 274 276 276 276 276 273 271 269 275 nan nan nan nan nan nan nan nan nan nan nan nan nan nan nan nan nan nan nan nan nan nan nan nan nan nan
278 275 272 266 260 257 257 256 257 258 257 254 253 253 253 254 257 260 262 264 266 264 263 263 264 262 260 259 259 260 261 262 264 266 272 283 289 294 286 276 282 277 278 284 283 277 278 281 278 282 280 279 277 276 277 277 273 275 nan nan nan nan nan nan nan nan nan nan nan nan nan nan nan nan nan nan nan nan nan nan nan nan nan nan nan
273 273 271 267 263 261 260 259 259 260 260 259 257 255 254 253 254 256 257 260 263 267 273 269 266 264 262 262 261 256 253 252 264 271 274 281 287 294 291 286 285 282 280 278 278 279 282 285 291 293 289 286 283 280 279 nan nan nan nan nan nan nan nan nan nan nan nan nan nan nan nan nan nan nan nan nan nan nan nan nan nan nan nan nan nan
275 273 270 269 268 268 264 261 260 261 263 263 261 261 259 257 258 259 261 260 262 264 262 260 259 259 265 265 267 265 263 260 260 268 278 283 288 290 288 271 270 279 281 281 283 285 285 289 294 296 295 291 288 286 286 285 281 nan nan nan nan nan nan nan nan nan nan nan nan nan nan nan nan nan nan nan nan nan nan nan nan nan nan nan nan
276 272 269 270 269 272 270 268 265 264 264 266 267 266 264 264 nan nan 266 272 276 275 272 268 264 261 260 263 267 268 270 269 269 267 265 272 266 261 264 266 265 259 259 267 272 273 272 271 271 270 271 277 280 279 280 278 nan nan nan nan nan nan nan nan nan nan nan nan nan nan nan nan nan nan nan nan nan nan nan nan nan nan nan nan nan
277 272 270 269 270 271 272 271 271 269 265 267 nan nan nan nan nan nan nan nan nan 260 266 nan 273 274 269 269 271 273 273 276 275 272 271 269 270 272 271 270 271 269 268 268 270 272 276 278 278 277 277 275 274 273 273 273 nan nan nan nan nan nan nan nan nan nan nan nan nan nan nan nan nan nan nan nan nan nan nan nan nan nan nan nan nan
280 275 271 268 269 271 272 274 272 272 nan nan nan nan nan nan nan nan nan nan nan nan nan nan nan nan nan nan nan nan nan nan 274 274 275 275 275 278 279 277 276 278 277 276 278 279 278 276 nan 275 277 278 276 272 267 nan nan nan nan nan nan nan nan nan nan nan nan nan nan nan nan nan nan nan nan nan nan nan nan nan nan nan nan nan nan
286 281 275 270 268 268 271 273 273 275 nan 272 nan nan nan nan nan nan nan nan nan nan nan nan nan nan nan nan nan nan nan nan nan nan nan nan nan nan nan nan nan nan nan nan nan 283 284 286 289 nan nan nan nan nan nan nan nan nan nan nan nan nan nan nan nan nan nan nan nan nan nan nan nan nan nan nan nan nan nan nan nan nan nan nan nan
290 288 281 274 272 271 271 274 275 277 278 nan nan nan nan nan nan nan nan nan nan nan nan nan nan nan nan nan nan nan nan nan nan nan nan nan nan nan nan nan nan nan nan nan nan nan nan nan nan nan nan nan nan nan nan nan nan nan nan nan nan nan nan nan nan nan nan nan nan nan nan nan nan nan nan nan nan nan nan nan nan nan nan nan nan
292 288 284 278 269 269 271 271 274 275 274 276 278 nan nan nan nan nan nan nan nan nan nan nan nan nan nan nan nan nan nan nan nan nan nan nan nan nan nan nan nan nan nan nan nan nan nan nan nan nan nan nan nan nan nan nan nan nan nan nan nan nan nan nan nan nan nan nan nan nan nan nan nan nan nan nan nan nan nan nan nan nan nan nan nan
288 283 279 278 275 272 269 270 271 274 276 275 275 273 273 276 nan nan nan nan nan nan nan nan nan nan nan nan nan nan nan nan nan nan nan nan nan nan nan nan nan nan nan nan nan nan nan nan nan nan nan nan nan nan nan nan nan nan nan nan nan nan nan nan nan nan nan nan nan nan nan nan nan nan nan nan nan nan nan nan nan nan nan nan nan
289 287 282 275 274 271 267 269 268 271 273 274 272 269 268 265 269 274 nan nan nan nan nan nan nan nan nan nan nan nan nan nan nan nan nan nan nan nan nan nan nan nan nan nan nan nan nan nan nan nan nan nan nan nan nan nan nan nan nan nan nan nan nan nan nan nan nan nan nan nan nan nan nan nan nan nan nan nan nan nan nan nan nan nan nan
291 287 283 283 276 271 269 267 267 265 265 263 262 266 264 262 261 259 272 nan nan nan nan nan nan nan nan nan nan nan nan nan nan nan nan nan nan nan nan nan nan nan nan nan nan nan nan nan nan nan nan nan nan nan nan nan nan nan nan nan nan nan nan nan nan nan nan nan nan nan nan nan nan nan nan nan nan nan nan nan nan nan nan nan nan
288 281 274 268 277 273 269 264 262 261 265 264 265 263 262 261 259 257 253 256 257 256 nan nan nan nan nan nan nan nan nan nan nan nan nan nan nan nan nan nan nan nan nan nan nan nan nan nan nan nan nan nan nan nan nan nan nan nan nan nan nan nan nan nan nan nan nan nan nan nan nan nan nan nan nan nan nan nan nan nan nan nan nan nan nan
289 287 287 285 277 271 269 264 257 257 259 259 259 258 260 259 259 258 257 259 nan nan nan nan nan nan nan nan nan nan 278 nan nan nan nan nan nan nan nan nan nan nan nan nan nan nan nan nan nan nan nan nan nan nan nan nan nan nan nan nan nan nan nan nan nan nan nan nan nan nan nan nan nan nan nan nan nan nan nan nan nan nan nan nan nan
295 291 288 280 274 270 268 267 263 255 253 255 259 260 258 257 257 257 259 259 nan nan nan nan nan nan nan nan nan nan nan nan nan nan nan nan nan nan nan nan nan nan nan nan nan nan nan nan nan nan nan nan nan nan nan nan nan nan nan nan nan nan nan nan nan nan nan nan nan nan nan nan nan nan nan nan nan nan nan nan nan nan nan nan nan
293 289 283 275 274 270 269 268 262 261 257 257 256 257 258 257 255 256 257 258 261 265 268 269 nan nan nan nan nan nan nan nan nan nan nan nan nan nan nan nan nan nan nan nan nan nan nan nan nan nan nan nan nan nan nan nan nan nan nan nan nan nan nan nan nan nan nan nan nan nan nan nan nan nan nan nan nan nan nan nan nan nan nan nan nan
293 278 268 272 268 270 270 267 267 266 265 260 259 259 259 259 259 259 259 259 263 265 267 271 nan nan nan nan nan nan nan nan nan nan nan nan nan nan nan nan nan nan nan nan nan nan nan nan nan nan nan nan nan nan nan nan nan nan nan nan nan nan nan nan nan nan nan nan nan nan nan nan nan nan nan nan nan nan nan nan nan nan nan nan nan
292 293 292 288 278 270 268 269 266 267 267 267 264 264 262 262 261 262 262 263 263 265 nan nan nan nan nan nan nan nan nan nan nan nan nan nan nan nan nan nan nan nan nan nan nan nan nan nan nan nan nan nan nan nan nan nan nan nan nan nan nan nan nan nan nan nan nan nan nan nan nan nan nan nan nan nan nan nan nan nan nan nan nan nan nan
287 287 288 293 275 274 271 268 266 266 270 270 269 270 268 266 265 264 265 266 nan nan nan nan nan nan nan nan nan nan nan nan nan nan nan nan nan nan nan nan nan nan nan nan nan nan nan nan nan nan nan nan nan nan nan nan nan nan nan nan nan nan nan nan nan nan nan nan nan nan nan nan nan nan nan nan nan nan nan nan nan nan nan nan nan
286 284 284 285 283 275 272 268 264 260 258 264 267 269 270 270 269 268 268 269 nan 271 nan nan nan nan nan nan nan nan nan nan nan nan nan nan nan nan nan nan nan nan nan nan nan nan nan nan nan nan nan nan nan nan nan nan nan nan nan nan nan nan nan nan nan nan nan nan nan nan nan nan nan nan nan nan nan nan nan nan nan nan nan nan nan
283 280 278 276 276 274 270 270 268 266 262 259 261 264 267 268 271 271 270 270 271 nan 276 nan nan nan nan nan nan nan nan nan nan nan nan nan nan nan nan nan nan nan nan nan nan nan nan nan nan nan nan nan nan nan nan nan nan nan nan nan nan nan nan nan nan nan nan nan nan nan nan nan nan nan nan nan nan nan nan nan nan nan nan nan nan
281 277 274 272 270 267 264 263 268 268 267 266 260 259 263 266 268 269 272 272 273 nan nan nan nan nan nan nan nan nan nan nan nan nan nan nan nan nan nan nan nan nan nan nan nan nan nan nan nan nan nan nan nan nan nan nan nan nan nan nan nan nan nan nan nan nan nan nan nan nan nan nan nan nan nan nan nan nan nan nan nan nan nan nan nan
279 275 272 269 269 267 266 263 262 266 266 267 267 265 263 261 263 265 267 270 271 271 nan nan nan nan nan nan nan nan nan nan nan nan nan nan nan nan nan nan nan nan nan nan nan nan nan nan nan nan nan nan nan nan nan nan nan nan nan nan nan nan nan nan nan nan nan nan nan nan nan nan nan nan nan nan nan nan nan nan nan nan nan nan nan
276 273 269 265 266 266 265 266 266 264 266 267 268 269 269 267 266 267 268 267 269 270 271 nan nan nan nan nan nan nan nan nan nan nan nan nan nan nan nan nan nan nan nan nan nan nan nan nan nan nan nan nan nan nan nan nan nan nan nan nan nan nan nan nan nan nan nan nan nan nan nan nan nan nan nan nan nan nan nan nan nan nan nan nan nan
276 272 268 264 263 265 266 266 268 268 267 267 267 268 270 272 270 267 267 265 267 271 271 273 nan nan nan nan nan nan nan nan nan nan nan nan nan nan nan nan nan nan nan nan nan nan nan nan nan nan nan nan nan nan nan nan nan nan nan nan nan nan nan nan nan nan nan nan nan nan nan nan nan nan nan nan nan nan nan nan nan nan nan nan nan
278 274 269 263 262 264 269 270 271 273 270 272 272 271 272 273 273 271 269 269 264 265 266 269 272 nan nan nan nan nan nan nan nan nan nan nan nan nan nan nan nan nan nan nan nan nan nan nan nan nan nan nan nan nan nan nan nan nan nan nan nan nan nan nan nan nan nan nan nan nan nan nan nan nan nan nan nan nan nan nan nan nan nan nan nan
281 276 271 268 265 265 268 273 274 275 276 275 276 276 275 276 275 274 272 269 268 267 265 265 268 271 274 nan nan nan nan nan nan nan nan nan nan nan nan nan nan nan nan nan nan nan nan nan nan nan nan nan nan nan nan nan nan nan nan nan nan nan nan nan nan nan nan nan nan nan nan nan nan nan nan nan nan nan nan nan nan nan nan nan nan
280 276 272 271 269 269 269 271 274 276 277 277 277 278 280 281 281 280 278 276 274 273 271 269 268 269 272 275 277 nan nan nan nan nan nan nan nan nan nan nan nan nan nan nan nan nan nan nan nan nan nan nan nan nan nan nan nan nan nan nan nan nan nan nan nan nan nan nan nan nan nan nan nan nan nan nan nan nan nan nan nan nan nan nan nan
278 274 269 267 269 269 271 273 275 274 273 274 275 276 280 284 286 285 282 279 276 274 274 273 273 275 276 276 277 277 276 277 nan nan nan nan nan nan nan nan nan nan nan nan nan nan nan nan nan nan nan nan nan nan nan nan nan nan nan nan nan nan nan nan nan nan nan nan nan nan nan nan nan nan nan nan nan nan nan nan nan nan nan nan nan